TimeEST,TemperatureF,Dew PointF,Humidity,Sea Level PressureIn,VisibilityMPH,Wind Direction,Wind SpeedMPH,Gust SpeedMPH,PrecipitationIn,Events,Conditions,WindDirDegrees,DateUTC
12:53 AM,12.9,5.0,71,30.11,10.0,WSW,5.8,-,N/A,,Partly Cloudy,240,2013-01-02 05:53:00
1:50 AM,14.0,8.6,79,30.08,10.0,WSW,6.9,-,N/A,,Mostly Cloudy,240,2013-01-02 06:50:00
1:53 AM,14.0,8.1,77,30.11,10.0,WSW,5.8,-,N/A,,Mostly Cloudy,240,2013-01-02 06:53:00
2:31 AM,12.2,6.8,79,30.08,10.0,SW,5.8,-,N/A,,Scattered Clouds,220,2013-01-02 07:31:00
2:53 AM,16.0,9.0,74,30.12,10.0,SW,5.8,-,N/A,,Partly Cloudy,230,2013-01-02 07:53:00
3:06 AM,14.0,6.8,73,30.09,10.0,SW,5.8,-,N/A,,Mostly Cloudy,230,2013-01-02 08:06:00
3:53 AM,16.0,9.0,74,30.12,10.0,WSW,5.8,-,N/A,,Overcast,250,2013-01-02 08:53:00
4:53 AM,16.0,9.0,74,30.13,10.0,WSW,4.6,-,N/A,,Mostly Cloudy,240,2013-01-02 09:53:00
5:00 AM,12.2,6.8,79,30.10,10.0,WSW,3.5,-,N/A,,Scattered Clouds,240,2013-01-02 10:00:00
5:53 AM,10.9,6.1,81,30.14,10.0,SSW,5.8,-,N/A,,Clear,210,2013-01-02 10:53:00
7:53 AM,10.9,6.1,81,30.16,10.0,SW,9.2,-,N/A,,Scattered Clouds,220,2013-01-02 12:53:00
8:01 AM,10.4,5.0,79,30.12,10.0,SW,6.9,-,N/A,,Mostly Cloudy,220,2013-01-02 13:01:00
8:08 AM,10.4,3.2,73,30.12,10.0,SW,5.8,-,N/A,,Scattered Clouds,220,2013-01-02 13:08:00
8:53 AM,10.0,5.0,80,30.15,10.0,SSW,4.6,-,N/A,,Mostly Cloudy,200,2013-01-02 13:53:00
9:53 AM,14.0,9.0,80,30.18,10.0,SSW,5.8,-,N/A,,Overcast,200,2013-01-02 14:53:00
10:53 AM,18.0,10.9,74,30.21,10.0,SW,8.1,-,N/A,,Overcast,220,2013-01-02 15:53:00
11:53 AM,21.9,12.9,68,30.20,10.0,SSW,6.9,-,N/A,,Overcast,210,2013-01-02 16:53:00
12:53 PM,24.1,15.1,69,30.18,10.0,SSW,8.1,-,N/A,,Overcast,200,2013-01-02 17:53:00
1:53 PM,25.0,16.0,69,30.18,10.0,SSW,5.8,-,N/A,,Overcast,200,2013-01-02 18:53:00
2:53 PM,26.1,16.0,66,30.17,10.0,SSW,5.8,-,N/A,,Overcast,200,2013-01-02 19:53:00
3:53 PM,26.1,17.1,69,30.17,10.0,South,5.8,-,N/A,,Overcast,190,2013-01-02 20:53:00
4:53 PM,26.1,17.1,69,30.18,10.0,SSW,8.1,-,N/A,,Overcast,200,2013-01-02 21:53:00
6:53 PM,25.0,17.1,72,30.22,10.0,SSW,10.4,-,N/A,,Overcast,210,2013-01-02 23:53:00
7:53 PM,24.1,16.0,71,30.22,9.0,SSW,11.5,-,N/A,,Overcast,210,2013-01-03 00:53:00
8:53 PM,24.1,16.0,71,30.21,8.0,SW,9.2,-,N/A,,Overcast,220,2013-01-03 01:53:00
9:53 PM,24.1,16.0,71,30.20,8.0,SSW,9.2,-,N/A,,Overcast,200,2013-01-03 02:53:00
10:53 PM,24.1,16.0,71,30.19,8.0,SSW,10.4,-,N/A,,Overcast,210,2013-01-03 03:53:00